This is the latest recevied weather packets stored in our database for station/object DL1DH-17. If no packets are shown the sender has not sent any weather packets the latest 10 day(s).
| Time | Temp. | Humidity | Pressure | Rain* | Wind** | Luminosity | Snow |
|---|---|---|---|---|---|---|---|
| 1777968536 | 17.22° C | 66% | 970.1 hPa | - | - | - | - |
| 1777967696 | 16.67° C | 68% | 970.3 hPa | - | - | - | - |
| 1777966856 | 16.11° C | 70% | 970.4 hPa | - | - | - | - |
| 1777966016 | 15.56° C | 70% | 970.6 hPa | - | - | - | - |
| 1777965176 | 15° C | 71% | 970.6 hPa | - | - | - | - |
| 1777964334 | 15.56° C | 71% | 970.7 hPa | - | - | - | - |
| 1777963494 | 14.44° C | 72% | 970.7 hPa | - | - | - | - |
| 1777962654 | 15° C | 71% | 970.8 hPa | - | - | - | - |
| 1777961814 | 15° C | 71% | 970.7 hPa | - | - | - | - |
| 1777960974 | 14.44° C | 74% | 970.7 hPa | - | - | - | - |
| 1777960134 | 13.89° C | 76% | 970.9 hPa | - | - | - | - |
| 1777959293 | 13.89° C | 76% | 970.9 hPa | - | - | - | - |
| 1777958453 | 13.33° C | 76% | 970.8 hPa | - | - | - | - |
| 1777957613 | 13.33° C | 76% | 970.6 hPa | - | - | - | - |
| 1777956773 | 13.33° C | 77% | 970.7 hPa | - | - | - | - |
| 1777955933 | 13.33° C | 76% | 970.9 hPa | - | - | - | - |
| 1777955093 | 13.33° C | 76% | 970.9 hPa | - | - | - | - |
| 1777954253 | 13.33° C | 76% | 970.8 hPa | - | - | - | - |
| 1777953413 | 12.78° C | 77% | 970.9 hPa | - | - | - | - |
| 1777952573 | 13.33° C | 76% | 970.9 hPa | - | - | - | - |
| 1777951733 | 13.33° C | 76% | 971 hPa | - | - | - | - |
| 1777950893 | 13.33° C | 76% | 971 hPa | - | - | - | - |
| 1777950053 | 13.33° C | 76% | 971.3 hPa | - | - | - | - |
| 1777949212 | 13.33° C | 76% | 971.4 hPa | - | - | - | - |
| 1777948372 | 13.89° C | 75% | 971.6 hPa | - | - | - | - |
* Rain since midnight (hover to see other rain measurements)
** Current wind speed in m/s (hover to see current wind gust speed)